Location: Chagrin Falls Park
(41.4139°N, 81.3865°W)
Time: 04:29:10
(UTC+00:00)

VELOX 1 - Visible Passes

Search period start: 17 October 2021 00:00
Search period end: 27 October 2021 00:00
Orbit: 626 x 642 km, 98.3° (Epoch: 16 October)

Date Brightness Start Highest point End Pass type
(mag) Time Alt. Az. Time Alt. Az. Time Alt. Az.
19 Oct ? 23:14:41 10° NNW 23:17:30 17° WNW 23:20:20 10° WSW visible
20 Oct ? 23:38:19 10° NW 23:38:59 10° WNW 23:39:40 10° WNW visible
23 Oct ? 23:04:55 10° NNW 23:08:15 21° WNW 23:11:33 10° WSW visible
24 Oct ? 23:27:41 10° NW 23:29:45 13° WNW 23:31:48 10° W visible
